Regional Weather Roundup
Issued by NWS Charleston, SC

Home | Current Version | Previous Version | Text Only | Print | Product List | Glossary On
Versions: 1 2 3 4 5 6 7 8 9 10 11 12 13 14 15 16 17 18 19 20 21 22 23 24 25 26 27 28 29 30 31 32 33 34 35 36 37 38 39 40 41 42 43 44 45 46 47 48 49 50
000
ASUS42 KCHS 170125
RWRCHS

REGIONAL WEATHER ROUNDUP
NATIONAL WEATHER SERVICE CHARLESTON SC
900 PM EDT WED APR 16 2014

NOTE: "FAIR" INDICATES FEW OR NO CLOUDS BELOW 12,000 FEET WITH NO
SIGNIFICANT WEATHER AND/OR OBSTRUCTIONS TO VISIBILITY.

NOT ALL STATIONS ARE QUALITY CONTROLLED BY THE NATIONAL
WEATHER SERVICE. USE DATA WITH CAUTION...ESPECIALLY
DEWPOINT OBSERVATIONS.

SCZ027-030-031-034>040-042>050-170200-
...SOUTH CAROLINA...

CITY           SKY/WX    TMP DP  RH WIND       PRES   REMARKS
N CHARLESTON   CLEAR     51  38  60 E8        30.35R
WATERFRONT PRK   N/A     54 N/A N/A E23         N/A
FORT JOHNSON     N/A     54  43  66 E9G18     30.39R
MOUNT PLEASANT FAIR     N/A N/A N/A CALM      30.35R
JOHNS ISLAND   CLEAR     52  43  71 E17       30.35R
PINOPOLIS        N/A     52  37  58 E9        30.27R
MONCKS CORNER  FAIR      50  41  71 E6        30.35R
SUMMERVILLE    FAIR      50  39  66 E3        30.36R
BEAUFORT MCAS  CLEAR     53  42  66 SE10      30.33R
BEAUFORT ARPT  FAIR      54  43  66 E13G18    30.32R
HILTON HEAD IS CLEAR     54  41  62 NE14G23   30.33R
GEORGETOWN     NOT AVBL
WALTERBORO     CLEAR     46  41  81 E7        30.36R
ORANGEBURG     CLEAR     50  33  52 NE5       30.34R
BARNWELL       FAIR      50  34  53 NE5       30.34R
AIKEN          FAIR      50  34  53 E7        30.36R
MANNING        FAIR      46  37  71 E7        30.36R
KINGSTREE      NOT AVBL
COLUMBIA       CLEAR     53  31  42 E6        30.34R
SUMTER         CLEAR     44  32  62 NE5       30.35R
FLORENCE       CLEAR     46  33  60 NE7       30.37R
MYRTLE BEACH   CLEAR     52  37  58 E9        30.37R
N MYRTLE BEACH CLEAR     49  35  58 NE10      30.38R

$$

GAZ063-065-086>088-099>101-113>116-118-119-134-136>141-150-170200-
...GEORGIA...

CITY           SKY/WX    TMP DP  RH WIND       PRES   REMARKS
SAVANNAH ARPT  CLEAR     53  41  63 E9        30.32R
HUNTER AAF     CLEAR     52  42  69 E8        30.29R
FORT STEWART   CLEAR     50  45  81 E6        30.29R
STATESBORO     NOT AVBL
SYLVANIA       CLEAR     52  42  68 SE6       30.32R
CLAXTON        FAIR      52  46  82 E6        30.31R
THOMSON        CLEAR     45  40  82 CALM      30.36R
AUGUSTA-BUSH   CLEAR     49  31  49 E6        30.32R
AUGUSTA-DANIEL CLEAR     56  30  37 E7        30.32R
SWAINSBORO     FAIR      50  37  62 E3        30.30R
VIDALIA        CLEAR     52  43  71 SE3       30.29R
ALMA           CLEAR     51  40  65 E6        30.28R
WAYCROSS       NOT AVBL
JESUP          FAIR      48  45  87 E6        30.30R
BRUNSWICK      CLEAR     52  45  76 NE9       30.29R
SAINT SIMONS   LGT RAIN  55  45  68 NE16G24   30.27R

$$

SCZ027-028-034-036>038-045-046-048>050-GAZ119-141-170200-
...LAKE AND SUPPLEMENTAL COASTAL OBSERVATIONS...

STATION/POSITION TIME  TEMP    WIND        PRES    WAVE   SWELL
                       AIR SEA DIR/SP/G            HT/PER HT/PER/DIR
                 (UTC) (F)     (DEG/KT/KT) (MB)    (FT/S) (FT/S/D)
UPR LAKE MARION  NOT AVBL
WINYAH BAY       0100   53      70/ 12     1028.0S
LAKE MURRAY      0100   54      70/  4/  8 1026.8R
ACE BASIN NERRS  0100   51      70/  5     1027.0R
FORT PULASKI     0100   56 60   60/ 22/ 28 1026.5R
SAPELO ISLAND    0000   53      50/ 13     1024.0S

$$

ANZ086-088-AMZ330-350-352-354-374-454-470-170200-
...C-MAN AND BUOY OBSERVATIONS...

STATION/POSITION TIME  TEMP    WIND        PRES    WAVE   SWELL
                       AIR SEA DIR/SP/G            HT/PER HT/PER/DIR
                 (UTC) (F)     (DEG/KT/KT) (MB)    (FT/S) (FT/S/D)
FOLLY BEACH CMAN 0100   54      70/ 20/ 22 1027.9R
BUOY 41004       NOT AVBL
BUOY 41008       0100   57 64   50/ 21/ 25 1024.4R   6/ 7
5E ST. MARYS GA  0100      65                N/A     8/ 7   2/ 90/11
FRYING PAN BUOY  0100   52 65   60/ 23/ 27 1027.4R   8/ 7   2/ 80/11
BUOY 41025       NOT AVBL
CAPE LOOKOUT NC  0100   46      30/ 19/ 24 1029.8R
BUOY 41002       NOT AVBL
BUOY 41010       0100   72 76   50/ 19/ 21 1019.6R   7/ 9   3/ 20/ 9
BUOY 41012       NOT AVBL
ST AUGUSTINE FL  0100   63      40/ 21/ 25 1023.1R


$$


USA.gov is the U.S. government's official web portal to all federal, state and local government web resources and services.